Regional Weather Roundup
Issued by NWS

Home | Current Version | Previous Version | Text Only | Print | Product List | Glossary Off
Versions: 1 2 3 4 5 6 7 8 9 10 11 12 13 14 15 16 17 18 19 20 21 22 23 24 25 26 27 28 29 30 31 32 33 34 35 36 37 38 39 40 41 42 43 44 45 46 47 48 49 50

000
ASUS43 KMKX 251100
RWRWI

WISCONSIN REGIONAL WEATHER ROUNDUP
NATIONAL WEATHER SERVICE MILWAUKEE/SULLIVAN WI
600 AM CDT TUE APR 25 2017

NOTE: "FAIR" INDICATES FEW OR NO CLOUDS BELOW 12,000 FEET WITH NO
SIGNIFICANT WEATHER AND/OR OBSTRUCTIONS TO VISIBILITY.

WIZ001-002-006>008-014>016-023>028-251200-
NORTHWEST WISCONSIN

CITY           SKY/WX    TMP DP  RH WIND       PRES   REMARKS
SUPERIOR ARPT  LGT RAIN  38  37  94 NE8       29.59S WCI  32
ASHLAND        CLOUDY    41  38  89 NE6       29.59S
HAYWARD        CLOUDY    58  33  39 SE8       29.54F
SIREN          CLOUDY    51  40  66 CALM      29.52R
CUMBERLAND     CLOUDY    55  32  41 SE12      29.52F
RICE LAKE      CLOUDY    58  32  38 SE9       29.55F
CHETEK         CLOUDY    58  35  42 SE8       29.55S
LADYSMITH      CLOUDY    58  32  38 SE8       29.58F
EAU CLAIRE     NOT AVBL
MENOMONIE      CLOUDY    57  35  44 E8        29.53F
NEW RICHMOND   CLOUDY    59  32  36 SE8       29.51S
OSCEOLA        CLOUDY    59  37  43 SE6       29.53R
$$

WIZ003>005-009-010-017-018-251200-
NORTH CENTRAL WISCONSIN

CITY           SKY/WX    TMP DP  RH WIND       PRES   REMARKS
MANITOWISH WTR CLOUDY    49  34  56 SE7       29.63S
ARBOR VITAE    CLOUDY    52  35  53 SE8       29.63F
WOODRUFF       CLOUDY    52  35  53 SE8       29.63F
RHINELANDER    CLOUDY    52  34  50 SE8       29.65F
EAGLE RIVER    CLOUDY    48  31  51 SE6       29.65F
LAND O LAKES   CLOUDY    52  31  44 SE9G16    29.67F
PHILLIPS       PTCLDY    51  34  51 SE8       29.59F
TOMAHAWK       CLOUDY    51  33  49 SE3       29.64F
MEDFORD        PTCLDY    52  33  49 SE8       29.61F
MERRILL        PTCLDY    51  34  52 SE7       29.65S
$$

WIZ029-030-035-036-043>047-251200-
CENTRAL WISCONSIN

CITY           SKY/WX    TMP DP  RH WIND       PRES   REMARKS
WAUSAU         PTCLDY    50  34  54 E8        29.63F
MOSINEE        MOCLDY    54  34  47 SE9       29.65S
MARSHFIELD     CLOUDY    54  34  46 SE9       29.61F
STEVENS POINT  PTCLDY    53  34  47 SE9G18    29.65F
WAUPACA        CLOUDY    52  36  54 SE6       29.67F
WAUTOMA        CLOUDY    49  37  63 E3        29.66F
WISC RAPIDS    MOCLDY    55  36  48 SE8       29.64S
CAMP DOUGLAS   NOT AVBL
$$

WIZ011>013-019>022-031-037>040-048>050-251200-
NORTHEAST WISCONSIN

CITY           SKY/WX    TMP DP  RH WIND       PRES   REMARKS
ANTIGO         CLOUDY    46  34  62 SE14      29.68F
SHAWANO        CLEAR     50  35  56 SE3       29.69F
OCONTO         CLOUDY    48  39  70 SE7       29.71F
STURGEON BAY   CLOUDY    48  39  71 SE10      29.73F
GREEN BAY      CLEAR     51  40  65 S10       29.70F
MANITOWOC      NOT AVBL
APPLETON       PTCLDY    52  36  54 SE9       29.67S
CLINTONVILLE   CLOUDY    50  34  53 SE5       29.68F
OSHKOSH        PTCLDY    53  38  56 SE12      29.67F
$$

WIZ032>034-041-042-053>061-251200-
SOUTHWEST WISCONSIN

CITY           SKY/WX    TMP DP  RH WIND       PRES   REMARKS
LA CROSSE      CLOUDY    60  34  37 SE8       29.56F
SPARTA         MOCLDY    58  33  39 S10G16    29.60S
VIROQUA        CLEAR     51  34  52 SE10      29.59F
BOSCOBEL       CLEAR     53  35  50 CALM      29.60F
PRAIRIE DU CHI CLOUDY    55  33  43 E7        29.59S
PLATTEVILLE    CLEAR     51  37  58 SE12      29.62S
$$

WIZ056-057-062-063-064-067-068-251200-
SOUTH CENTRAL WISCONSIN

CITY           SKY/WX    TMP DP  RH WIND       PRES   REMARKS
REEDSBURG      CLOUDY    55  37  49 SE6       29.62S
BARABOO/DELLS  CLOUDY    55  36  48 S10       29.63F
LONE ROCK      NOT AVBL
MINERAL POINT  CLEAR     52  37  58 SE9       29.62F
MADISON        CLOUDY    55  39  54 S8        29.65F
MIDDLETON      CLOUDY    56  39  52 S9        29.65F
WATERTOWN      CLOUDY    54  41  63 SE8       29.66F
MONROE         CLOUDY    52  37  58 SE9       29.65S
JANESVILLE     CLOUDY    54  41  62 SE10      29.66F
$$

WIZ051-052-058>065-066-070>072-251200-
SOUTHEAST WISCONSIN

CITY           SKY/WX    TMP DP  RH WIND       PRES   REMARKS
MILWAUKEE      CLOUDY    53  42  66 SE10      29.71S
WAUKESHA       CLEAR     52  41  66 SE7       29.71F
MILWAUKEE/TIMM CLOUDY    52  37  58 SE5       29.71F
RACINE         CLOUDY    49  41  74 S12       29.73F
KENOSHA        PTCLDY    50  42  74 SE8       29.71S
FOND DU LAC    CLOUDY    53  37  54 SE13      29.67F
SHEBOYGAN      MOCLDY    49  39  68 S6        29.72F
WEST BEND      CLOUDY    50  37  62 SE3       29.71S
JUNEAU         CLOUDY    51  40  66 SE7       29.68F
$$

LSZ147-162-251200-
LAKE SUPERIOR

STATION/POSITION TIME  TEMP    WIND        PRES    WAVE
                       AIR SEA DIR/SP/G            HT/PER
                 (UTC) (F)     (DEG/KT/KT) (MB)    (FT/S)
DEVILS ISLAND    1000   38      50/ 16/ 18 1003.2F
PORT WING        0930   38      40/  8/  9 1002.7F
SAXON HARBOR     1040   43     180/  1/  4 1002.0F
$$

LMZ867-665-643>646-251200-
LAKE MICHIGAN

STATION/POSITION TIME  TEMP    WIND        PRES    WAVE
                       AIR SEA DIR/SP/G            HT/PER
                 (UTC) (F)     (DEG/KT/KT) (MB)    (FT/S)
CHAMBERS ISLAND  1040   51     130/  6/ 14 1006.4F
N MID LAKE BUOY  0950   42 37  110/ 17/ 21 1008.6F   2/ 4
NORTHPORT PIER   1040   43     150/  9/ 11 1007.8F
SISTER BAY       0906   51     170/ 12/ 17   N/A
KEWAUNEE LAKESHO 1030   46     130/  5/  6 1006.6F
SHEBOYGAN LAKESH 1000   48     170/  8/  9 1007.0F
PORT WASHINGTON  1040   47     140/  4/  5 1007.5F
MILWAUKEE LAKESH 1030   47     170/  1/  2   N/A
S MID LAKE BUOY  0950   46 41  100/ 12/ 12 1007.7F   1/ 3
KENOSHA   LAKESH 1000   47     160/ 10/ 13 1006.4
$$

TC  - TEMPERATURE IN CELSIUS
VSB - VISIBILITY IN STATUTE MILES
WCI - WIND CHILL INDEX
HX  - HEAT INDEX





USA.gov is the U.S. government's official web portal to all federal, state and local government web resources and services.